Location: Majestic Skies Ranch
(34.0000°N, 105.9300°W)
Time: 23:15:53
(UTC-06:00)

ISS - Visible Passes

Search period start: 29 April 2016 00:00
Search period end: 09 May 2016 00:00
Orbit: 402 x 405 km, 51.6° (Epoch: 29 April)

Date Brightness Start Highest point End Pass type
(mag) Time Alt. Az. Time Alt. Az. Time Alt. Az.
05 May -0.5 05:06:01 10° SSE 05:07:18 12° SE 05:08:36 10° ESE visible
07 May -2.0 04:56:29 17° S 04:58:28 32° SE 05:01:26 10° ENE visible
08 May -0.9 04:06:14 15° SE 04:06:14 15° SE 04:08:06 10° E visible
08 May -2.4 05:39:15 10° WSW 05:42:18 37° NW 05:45:23 10° NNE visible
